星链-32311 (STARLINK-32311)

导读 | 星芒AI

STARLINK-32311 是 SpaceX Starlink 项目中的一颗低轨通信卫星,属于第三代 Starlink 卫星(v1.5 或 v2 架构)。它于 2023 年发射,旨在为全球提供高速互联网服务。该卫星采用先进的推进系统和激光通信技术,提升网络性能与连接稳定性。作为 Starlink 卫星群的一部分,它有助于扩大覆盖范围,特别是在偏远和网络基础设施薄弱的地区。

基本信息
目录编号:
62114
目录名称:
STARLINK-32311
国际标识:
2024-222A
轨道中心:
EARTH
卫星名称:
星链-32311
卫星全名:
星链-32311 (STARLINK-32311)
卫星状态:
在轨 (已飞行388 天)
发射日期:
2024-11-27 UTC
国别 :
美国 (US)
星等 :
--
轨道信息
数据来源 国际轨道数据
星历时间: 2025-12-19T23:59:45+0800
16小时前
查看轨道信息
半长轴: 6861.184km
偏心率: 0.0000847
轨道倾角: 43.000°
近地点辐角 270.822°
升交点赤经 213.134°
平近点角 89.254°
近地点: 482.465km
远地点: 483.629km
周期: 94.267分钟
每日圈数: 15.275808
详细信息
固有亮度:
5
最大亮度:
2.5
卫星平台:
Starlink V1.0
覆盖范围:
全球
运营商:
太空探索技术公司
运营商所在国:
美国
制造商(研发单位):
太空探索技术公司
制造商所在国:
美国
使用方式:
暂无
卫星简介
Starlink 计划是 SpaceX 推出的全球卫星互联网项目,通过发射低轨道卫星,为全球尤其是偏远地区提供高速、低延迟的互联网服务。自 2019 年起,Starlink 已部署数千颗卫星,旨在缩小全球数字鸿沟,推动互联网普及。该项目还为军事、航空等行业提供通信支持,带来广泛经济效益。
2D轨道图
3D轨道图
轨道高度分析图
轨道倾角分析图
轨道综合分析图
查看轨道综合分析图